Location: ??
(35.5990°N, 139.7298°E)
Time: 05:34:07
(UTC+00:00)

Cosmos 2369 Rocket - Pass Details

Date: 07 June 2020
Orbit: 830 x 851 km, 71.0° (Epoch: 05 July)

Event Time Altitude Azimuth Distance (km) Brightness Sun altitude
Rises 11:41:45 0° 210° (SSW) 3,393 5.2 -17.9°
Reaches altitude 10° 11:44:13 10° 214° (SSW) 2,459 4.5 -18.3°
Maximum altitude 11:49:47 60° 293° (WNW) 960 2.7 -19.0°
Drops below altitude 10° 11:55:22 10° 14° (NNE) 2,459 5.1 -19.8°
Sets 11:57:51 0° 18° (NNE) 3,393 5.8 -20.1°
